Content
SEND FEEDBACK

Daily
Averages
Monthly
Summary
United States of America

PRINCEVILLE, ILLINOIS


Home > North America > United States > Illinois
Elevation: 751 feet     Latitude: 40 55N     Longitude: 089 46W

WEATHER
 
SELECT A DAY
Number of Records: 213,262;   Date Range: 1/1/95 - 12/26/14
 
SHARE

PRINT THIS DATA

[ ← Previous Day ]
WEATHER ALMANAC - JANUARY 3, 2013
[ Next Day → ]
[ °C ]   °F
Weather ElementAverageHighLow
Temperature25.4 °F30.9 °F (11:54 am)14 °F (11:54 pm)
Dewpoint18.6 °F24.8 °F (11:40 am)9 °F (11:54 pm)
Humidity75.6 %85 % (3:54 am)61 % (3:54 pm)
Barometer30.28 in30.39 in (9:54 pm)30.18 in (12:54 am)
Wind Speed8.1 mph16.1 mph (1:54 pm)
Wind Gust25.3 mph (2:05 pm)
Weather ElementAverage
Visibility9.8 mi
Wind DirectionW (269 °)

Weather ElementTotal
Precipitation---
Heating Degree Days42.6 (Base 65)
Averaged from 30 records on January 3, 2013
WEATHER CONDITIONS BREAKOUT
WIND DIRECTION BREAKOUT
WEATHER BY HOUR - JANUARY 3, 2013
[ °C ]   °F
Local TimeTemperatureDewpointHumidityBarometerVisibilityWind DirectionWind SpeedGust SpeedPrecipitationEventsConditions
12:54 AM21.0 °F15.1 °F78 %30.18 in10.0 miSSW (210°)5.8 mphOvercast
1:54 AM21.9 °F16.0 °F78 %30.19 in10.0 miSSW (210°)4.6 mphOvercast
2:54 AM24.1 °F18.0 °F77 %30.20 in10.0 miSW (230°)4.6 mphOvercast
3:23 AM23.0 °F17.6 °F80 %30.18 in10.0 miSW (230°)3.5 mphScattered Clouds
3:54 AM21.0 °F17.1 °F85 %30.20 in10.0 miSSW (200°)3.5 mphOvercast
4:54 AM24.1 °F19.9 °F84 %30.20 in9.0 miSouth (190°)5.8 mphOvercast
5:54 AM26.6 °F21.2 °F80 %30.19 in9.0 miSW (230°)5.8 mphOvercast
6:54 AM27.0 °F23.0 °F85 %30.23 in8.0 miWest (280°)6.9 mphOvercast
7:54 AM28.0 °F24.1 °F85 %30.24 in8.0 miWest (280°)6.9 mphOvercast
8:54 AM28.9 °F24.1 °F82 %30.27 in10.0 miWNW (290°)5.8 mphOvercast
9:54 AM30.0 °F23.0 °F75 %30.29 in10.0 miWest (280°)5.8 mphOvercast
10:06 AM30.2 °F23.0 °F75 %30.26 in10.0 miWest (280°)10.4 mphOvercast
10:54 AM30.0 °F24.1 °F79 %30.30 in10.0 miWest (280°)11.5 mphOvercast
11:40 AM30.2 °F24.8 °F80 %30.26 in10.0 miWest (280°)11.5 mph18.4 mphOvercast
11:54 AM30.9 °F24.1 °F76 %30.29 in10.0 miWNW (290°)8.1 mphOvercast
12:54 PM30.9 °F24.1 °F76 %30.28 in10.0 miWNW (290°)13.8 mph21.9 mphOvercast
1:31 PM30.2 °F23.0 °F75 %30.25 in10.0 miWest (280°)15.0 mph20.7 mphOvercast
1:43 PM30.2 °F21.2 °F69 %30.26 in10.0 miWNW (290°)10.4 mphOvercast
1:54 PM30.0 °F21.0 °F69 %30.29 in10.0 miWNW (300°)16.1 mph23.0 mphOvercast
2:05 PM30.2 °F19.4 °F64 %30.26 in10.0 miWNW (300°)13.8 mph25.3 mphOvercast
2:54 PM28.9 °F19.0 °F67 %30.31 in10.0 miWest (270°)11.5 mphPartly Cloudy
3:54 PM28.0 °F16.0 °F61 %30.32 in10.0 miWNW (290°)10.4 mphClear
4:54 PM25.0 °F15.1 °F66 %30.34 in10.0 miWNW (290°)9.2 mphClear
5:54 PM23.0 °F15.1 °F72 %30.36 in10.0 miWNW (290°)6.9 mphClear
6:54 PM21.9 °F14.0 °F72 %30.37 in10.0 miWNW (300°)4.6 mphClear
7:54 PM19.9 °F12.9 °F74 %30.38 in10.0 miWNW (300°)5.8 mphClear
8:54 PM19.0 °F12.0 °F74 %30.38 in10.0 miWNW (290°)5.8 mphClear
9:54 PM18.0 °F10.9 °F74 %30.39 in10.0 miWest (280°)5.8 mphClear
10:54 PM16.0 °F10.0 °F77 %30.38 in10.0 miWest (260°)5.8 mphClear
11:54 PM14.0 °F9.0 °F80 %30.38 in10.0 miWest (280°)6.9 mphClear
Hourly data recorded from KPIA, located miles away from Princeville, Illinois







STORIES FROM OUR PARTNERS